Location: Doschendorf
(50.0069°N, 11.0602°E)
Time: 00:56:41
(UTC+00:00)

NOAA 12 - Pass Details

Date: 22 February 2020
Orbit: 795 x 815 km, 98.5° (Epoch: 01 April)

Event Time Altitude Azimuth Distance (km) Brightness Sun altitude
Rises 17:57:40 0° 199° (SSW) 3,310 7.6 -12.3°
Reaches altitude 10° 18:00:21 10° 212° (SSW) 2,387 7.0 -12.8°
Maximum altitude 18:04:44 26° 268° (W) 1,554 6.5 -13.5°
Drops below altitude 10° 18:09:09 10° 324° (NW) 2,412 7.1 -14.2°
Sets 18:11:54 0° 337° (NNW) 3,351 7.7 -14.6°
